Regional Weather Roundup
Issued by NWS

Home | Current Version | Previous Version | Text Only | Print | Product List | Glossary On
Versions: 1 2 3 4 5 6 7 8 9 10 11 12 13 14 15 16 17 18 19 20 21 22 23 24 25 26 27 28 29 30 31 32 33 34 35 36 37 38 39 40 41 42 43 44 45 46 47 48 49 50
000
ASUS43 KMKX 271700
RWRWI

WISCONSIN REGIONAL WEATHER ROUNDUP
NATIONAL WEATHER SERVICE MILWAUKEE/SULLIVAN WI
1100 AM CST THU NOV 27 2014

NOTE: "FAIR" INDICATES FEW OR NO CLOUDS BELOW 12,000 FEET WITH NO
SIGNIFICANT WEATHER AND/OR OBSTRUCTIONS TO VISIBILITY.

WIZ001-002-006>008-014>016-023>028-271800-
NORTHWEST WISCONSIN

CITY           SKY/WX    TMP DP  RH WIND       PRES   REMARKS
SUPERIOR ARPT  SUNNY      2  -7  64 W5        30.50F WCI  -7
ASHLAND        MOSUNNY    8   1  73 SW6       30.45F WCI  -2
HAYWARD        SUNNY      3  -4  72 NW3       30.42F
SIREN          SUNNY      3  -7  63 CALM      30.48F
CUMBERLAND     SUNNY      1  -8  66 N6        30.43S WCI -10
RICE LAKE      SUNNY      2  -6  69 NW6       30.47S WCI  -9
CHETEK         SUNNY      3  -5  68 W5        30.46S WCI  -6
LADYSMITH      SUNNY      4  -2  75 NW6       30.43S WCI  -7
EAU CLAIRE     SUNNY      4  -4  69 W3        30.46F
MENOMONIE      SUNNY      5  -4  65 W5        30.48F WCI  -4
NEW RICHMOND   SUNNY      4  -5  65 NW5       30.49S WCI  -6
OSCEOLA        SUNNY      3  -6  66 NW6       30.53F WCI  -8
$$

WIZ003>005-009-010-017-018-271800-
NORTH CENTRAL WISCONSIN

CITY           SKY/WX    TMP DP  RH WIND       PRES   REMARKS
MANITOWISH WTR LGT SNOW   8   1  74 NW9       30.32S WCI  -6
ARBOR VITAE    PTSUNNY    9   3  77 NW6       30.32S WCI  -1
WOODRUFF       PTSUNNY    9   3  77 NW6       30.32S WCI  -1
RHINELANDER    MOSUNNY    9   1  70 N9        30.31S WCI  -4
EAGLE RIVER    PTSUNNY    9  -1  62 NW13      30.30R WCI  -6
LAND O LAKES   PTSUNNY   10   1  67 NW8       30.30S WCI  -3
PHILLIPS       SUNNY      5  -2  72 N8        30.35F WCI  -8
TOMAHAWK       MOSUNNY    9   2  74 NW8       30.35S WCI  -4
MEDFORD        SUNNY      6  -1  70 NW7       30.35S WCI  -5
MERRILL        SUNNY     11   2  67 N7        30.35S WCI   0
$$

WIZ029-030-035-036-043>047-271800-
CENTRAL WISCONSIN

CITY           SKY/WX    TMP DP  RH WIND       PRES   REMARKS
WAUSAU         SUNNY     11   2  67 NW9       30.35S WCI  -2
MOSINEE        MOSUNNY   10   7  85 N8        30.37R WCI  -1
MARSHFIELD     SUNNY      8   0  69 NW12      30.37S WCI  -7
STEVENS POINT  PTSUNNY   11   4  74 N7        30.38R WCI   0
WAUPACA        MOSUNNY   19   9  63 NW8       30.38S WCI   9
WAUTOMA        NOT AVBL
WISC RAPIDS    SUNNY     11   2  67 NW8       30.40S WCI  -1
CAMP DOUGLAS   NOT AVBL
$$

WIZ011>013-019>022-031-037>040-048>050-271800-
NORTHEAST WISCONSIN

CITY           SKY/WX    TMP DP  RH WIND       PRES   REMARKS
ANTIGO         SUNNY     10   2  71 NW10      30.31S WCI  -4
SHAWANO        SUNNY     18   6  59 NW12G17   30.36S WCI   5
OCONTO         SUNNY     15   3  59 N13G20    30.35F WCI   1
STURGEON BAY   MOSUNNY   16   5  62 N17       30.32S WCI   0
GREEN BAY      SUNNY     17   5  59 NW14      30.35S WCI   3
MANITOWOC      NOT AVBL
APPLETON       PTSUNNY   16   7  67 NW12      30.35R WCI   3
CLINTONVILLE   SUNNY     18   5  57 NW8       30.36S WCI   7
OSHKOSH        CLOUDY    17   8  67 MISG      30.35S
$$

WIZ032>034-041-042-053>061-271800-
SOUTHWEST WISCONSIN

CITY           SKY/WX    TMP DP  RH WIND       PRES   REMARKS
LA CROSSE      SUNNY     10   0  63 NW12      30.49R WCI  -5
SPARTA         SUNNY     10   1  67 N6        30.46S WCI   0
VIROQUA        SUNNY     10   2  71 NW12      30.40R WCI  -5
BOSCOBEL       SUNNY     17   4  56 W9        30.45R WCI   6
PRAIRIE DU CHI SUNNY     15   3  59 NW8       30.47R WCI   4
PLATTEVILLE    MOSUNNY   19  14  80 NW12      30.40R WCI   7
$$

WIZ056-057-062-063-064-067-068-271800-
SOUTH CENTRAL WISCONSIN

CITY           SKY/WX    TMP DP  RH WIND       PRES   REMARKS
REEDSBURG      SUNNY     13   6  73 N9        30.40R WCI   1
BARABOO/DELLS  SUNNY     15   7  72 N9        30.39R WCI   3
LONE ROCK      NOT AVBL
MINERAL POINT  MOSUNNY   21  12  68 NW13G18   30.37S WCI   9
MADISON        PTSUNNY   19   9  65 NW14      30.38R WCI   6
MIDDLETON      PTSUNNY   21  13  70 N10       30.38R WCI  10
WATERTOWN      CLOUDY    19  12  77 NW12      30.35S WCI   6
MONROE         LGT SNOW  21  18  86 N8        30.35S WCI  12
JANESVILLE     CLOUDY    23  16  74 NW12G17   30.36R WCI  12
$$

WIZ051-052-058>065-066-070>072-271800-
SOUTHEAST WISCONSIN

CITY           SKY/WX    TMP DP  RH WIND       PRES   REMARKS
MILWAUKEE      FLURRIES  24  15  68 NW10      30.33R WCI  14
WAUKESHA       CLOUDY    18  12  79 NW12      30.34S WCI   5
MILWAUKEE/TIMM CLOUDY    21  14  73 NW16      30.34R WCI   7
RACINE         CLOUDY    23  16  74 NW9       30.34S WCI  13
BURLINGTON     CLOUDY    19  13  80 N15       30.34S WCI   4
KENOSHA        PTSUNNY   24  16  71 NW14      30.32F WCI  12
FOND DU LAC    LGT SNOW  18  10  71 NW14      30.35S WCI   4
SHEBOYGAN      CLOUDY    19   9  65 NW15      30.34R WCI   5
WEST BEND      LGT SNOW  21  16  79 NW9       30.33S WCI  11
JUNEAU         LGT SNOW  17  13  81 NW10G16   30.35F WCI   5
$$

LSZ147-162-271800-
LAKE SUPERIOR

STATION/POSITION TIME  TEMP    WIND        PRES    WAVE
                       AIR SEA DIR/SP/G            HT/PER
                 (UTC) (F)     (DEG/KT/KT) (MB)    (FT/S)
DEVILS ISLAND    1600    9     330/ 11/ 13 1032.9R
PORT WING        1600    7     310/  7/ 10 1031.8S
SAXON HARBOR     1600   10     240/  3/ 10 1030.8R
$$

LMZ867-665-643>646-271800-
LAKE MICHIGAN

STATION/POSITION TIME  TEMP    WIND        PRES    WAVE
                       AIR SEA DIR/SP/G            HT/PER
                 (UTC) (F)     (DEG/KT/KT) (MB)    (FT/S)
CHAMBERS ISLAND  1600   17     310/ 16/ 25 1027.1R
N MID LAKE BUOY  1550   20 42  320/ 19/ 25 1026.3R   5/ 5
NORTHPORT PIER   1608   19     330/ 19     1026.4R
SISTER BAY       1613          330/ 24/ 30   N/A
KEWAUNEE LAKESHO 1600   16     340/ 13/ 17 1026.3R
SHEBOYGAN LAKESH 1600   18 35  330/ 17/ 21 1028.6R
PORT WASHINGTON  1600   22     360/  7/ 13 1027.8R
MILWAUKEE LAKESH 1600   23     310/ 10/ 13   N/A
S MID LAKE BUOY  1550   31 42  310/ 21/ 25 1025.4R   5/ 6
KENOSHA   LAKESH 1600   22     300/ 11/ 19 1026.8R
$$

TC  - TEMPERATURE IN CELSIUS
VSB - VISIBILITY IN STATUTE MILES
WCI - WIND CHILL INDEX
HX  - HEAT INDEX




USA.gov is the U.S. government's official web portal to all federal, state and local government web resources and services.